Weather in Izobilne

Russia / Republic of Crimea     45°06′38″N   35°12′06″E
temp.,
°C
wind,
m/s
gust,
m/s
humid.,
%
clouds,
%
prec.,
mm/h
press.,
hPa
HPBL,
m
9 december, thu
thu900:00+9sw349360 0.0 1009112
03:00+8wsw249259 0.0 1010163
06:00+8nne238491 0.0 1012215
09:00+8nne1278100 0.0 1014111
12:00+9s2377100 0.0 1016406
15:00+9sw348099 0.1 1016458
18:00+9ssw1281100 0.1 1018129
21:00+8sw338459 0.1 1019165
10 december, fri
fri1000:00+8sw46875 0.0 1020233
03:00+8sw359110 0.0 1021190
06:00+8ssw469145 0.0 1021191
09:00+9s578926 0.0 1022316
12:00+11s688219 0.0 1021573
15:00+11sse578516 0.0 1020452
18:00+10sse479732 0.0 1020225
21:00+10sse489447 0.0 1019322
11 december, sat
sat1100:00+10se489546 0.0 1019250
03:00+10se51194100 0.0 1018323
06:00+11se61487100 0.0 1017436
09:00+10sse51089100 0.0 1018287
12:00+12ene1182100 0.0 1018254
15:00+13n24705 0.0 1018428
18:00+11n2280100 0.0 102020
21:00+10n1188100 0.0 102120
12 december, sun
sun1200:00+9ne1290100 0.0 102128
03:00+9e2293100 0.0 102033
06:00+9e3595100 0.0 1019114
09:00+9e3686100 0.0 1019206
12:00+10ese41078100 0.0 1018404
15:00+10ese4981100 0.0 1017391
18:00+9ese4780100 0.0 1017226
21:00+9ese3680100 0.0 1016169
13 december, mon
mon1300:00+9ese358699 0.0 1015139
03:00+9ese3490100 0.0 101484
06:00+8nne339089 0.0 101444
09:00+8nnw358899 0.0 1014129
12:00+11nw4577100 0.0 1014379
15:00+12nnw347395 0.0 1014431
18:00+9nnw238637 0.0 101552
21:00+9nnw2288100 0.0 101533